This is the latest recevied weather packets stored in our database for station/object VR2HK-13. If no packets are shown the sender has not sent any weather packets the latest 1 day(s).
| Time | Temp. | Humidity | Pressure | Rain* | Wind** | Luminosity | Snow |
|---|---|---|---|---|---|---|---|
| 1777994099 | 21.11° C | 89% | 1013.9 hPa | 0 mm | 1.34 m/s, 310° | - | - |
| 1777993960 | 21.11° C | 89% | 1013.9 hPa | 0 mm | 3.13 m/s, 211° | - | - |
| 1777993799 | 21.11° C | 89% | 1013.9 hPa | 0 mm | 2.24 m/s, 227° | - | - |
| 1777993651 | 21.11° C | 89% | 1013.9 hPa | 0 mm | 0.89 m/s, 304° | - | - |
| 1777993498 | 21.11° C | 89% | 1013.9 hPa | 0 mm | 1.34 m/s, 249° | - | - |
| 1777993340 | 21.11° C | 90% | 1014 hPa | 0 mm | 1.34 m/s, 301° | - | - |
| 1777993199 | 21.11° C | 89% | 1014 hPa | 0 mm | 0.45 m/s, 348° | - | - |
| 1777993031 | 21.11° C | 89% | 1014 hPa | 0 mm | 0 m/s | - | - |
| 1777992898 | 21.11° C | 89% | 1014 hPa | 0 mm | 0.89 m/s, 237° | - | - |
| 1777992720 | 21.11° C | 89% | 1014 hPa | 0 mm | 1.79 m/s, 118° | - | - |
| 1777992599 | 21.11° C | 89% | 1014 hPa | 0 mm | 1.34 m/s, 31° | - | - |
| 1777992410 | 21.11° C | 89% | 1014 hPa | 0 mm | 0.45 m/s, 340° | - | - |
| 1777992299 | 21.11° C | 89% | 1014 hPa | 0 mm | 2.24 m/s, 27° | - | - |
| 1777992100 | 21.11° C | 89% | 1014.1 hPa | 0 mm | 0.45 m/s, 10° | - | - |
| 1777991999 | 21.11° C | 89% | 1014 hPa | 0 mm | 1.34 m/s, 252° | - | - |
| 1777991790 | 21.11° C | 89% | 1014.1 hPa | 0 mm | 0 m/s | - | - |
| 1777991699 | 21.11° C | 89% | 1014.1 hPa | 0 mm | 0.45 m/s, 342° | - | - |
| 1777991480 | 21.11° C | 89% | 1014.1 hPa | 0 mm | 0.45 m/s, 266° | - | - |
| 1777991400 | 21.11° C | 89% | 1014.1 hPa | 0 mm | 0.45 m/s, 313° | - | - |
| 1777991170 | 21.11° C | 89% | 1014.1 hPa | 0 mm | 0.45 m/s, 356° | - | - |
| 1777991098 | 21.11° C | 89% | 1014.1 hPa | 0 mm | 1.34 m/s, 249° | - | - |
| 1777990860 | 20.56° C | 89% | 1014.1 hPa | 0 mm | 2.68 m/s, 246° | - | - |
| 1777990799 | 20.56° C | 89% | 1014.1 hPa | 0 mm | 1.79 m/s, 243° | - | - |
| 1777990550 | 21.11° C | 89% | 1014.1 hPa | 0 mm | 0 m/s | - | - |
| 1777990498 | 21.11° C | 89% | 1014.1 hPa | 0 mm | 0 m/s | - | - |
* Rain latest hour (hover to see other rain measurements)
** Current wind speed in m/s (hover to see current wind gust speed)